User: anonymous   Login
Location: �chenoz-la-M�line
(47.6009°N, 6.1354°E)
Time: 19:43:46
(UTC+00:00)
Language:

USA 306 - Orbit

View from above orbital plane
View from above orbital plane
View from above satellite
View from above satellite

Ground track
Ground track

The orbit data is extracted from the following two-line orbital elements,

1 45874U 20046B   21103.10288825 0.00002300  00000-0  18891-3 0    09
2 45874  53.9780 188.3226 0009086 255.4014 104.5985 14.98705674    09
Epoch (UTC): 13 April 2021 02:28:09
Eccentricity: 0.0009086
inclination: 53.9780°
perigee height: 564 km
apogee height: 577 km
right ascension of ascending node: 188.3226°
argument of perigee: 255.4014°
revolutions per day: 14.98705674
mean anomaly at epoch: 104.5985°
orbit number at epoch: 0

The dashed part of the orbit path shows where the satellite is in the earth's shadow,  

DLR